星链-11475 (STARLINK-11475)

导读

STARLINK-11475是美国SpaceX公司于2024年12月5日发射的星链卫星,星链是全球知名低轨卫星互联网项目,旨在为全球偏远、网络欠发达区域提供高速低延迟宽带服务。 该卫星归入星链巨型星座,继承星链系统设计,工作在近地轨道,能为用户提供百兆级下载速率,助力补足地面网络覆盖盲区,支撑远程办公、流媒体视频等多元应用场景,是星链星座扩容的重要节点。

基本信息
目录编号:
62226
目录名称:
STARLINK-11475
国际标识:
2024-231J
轨道中心:
EARTH
卫星名称:
星链-11475
卫星全名:
星链-11475 (STARLINK-11475)
卫星状态:
在轨 (已飞行552 天)
发射日期:
2024-12-05 UTC
国别 :
美国 (US)
星等 :
--
轨道信息
数据来源 国际轨道数据
星历时间: 2026-06-10T09:46:17+0800
8小时前
查看轨道信息
半长轴: 6737.698km
偏心率: 0.0000944
轨道倾角: 53.157°
近地点辐角 58.430°
升交点赤经 5.685°
平近点角 301.681°
近地点: 358.924km
远地点: 360.198km
周期: 91.733分钟
每日圈数: 15.697682
详细信息
固有亮度:
5
最大亮度:
2.5
卫星平台:
Starlink V1.0
覆盖范围:
全球
运营商:
太空探索技术公司
运营商所在国:
美国
制造商(研发单位):
太空探索技术公司
制造商所在国:
美国
使用方式:
暂无
卫星简介
Starlink 计划是 SpaceX 推出的全球卫星互联网项目,通过发射低轨道卫星,为全球尤其是偏远地区提供高速、低延迟的互联网服务。自 2019 年起,Starlink 已部署数千颗卫星,旨在缩小全球数字鸿沟,推动互联网普及。该项目还为军事、航空等行业提供通信支持,带来广泛经济效益。
2D轨道图
3D轨道图
轨道高度分析图
轨道倾角分析图
轨道综合分析图
查看轨道综合分析图